DKH1106 ZSAM-ZSPD

Flight info

Callsign DKH1106
Flight time 1h 14m
Altitude 26600
Route DOVPU W643 FOC W644 ANLUD B221 SHZ W58 XSY
Aircraft A321/M-SDE2E3FGILRWXY/LB2

Departure

Time 2026-05-05 07:05
Airport Xiamen Gaoqi International Airport (ZSAM)

Arrival

Time 2026-05-05 08:19
Airport Shanghai Pudong International Airport (ZSPD)
Time Latitude Longitude Altitude Speed Heading
2026-05-05 06:36 24.54823 118.13906 74 ft 0 kts 75°
2026-05-05 06:52 24.54820 118.13896 73 ft 3 kts 75°
2026-05-05 06:53 24.54815 118.13874 73 ft 3 kts 72°
2026-05-05 06:53 24.54808 118.13854 73 ft 3 kts 58°
2026-05-05 06:53 24.54796 118.13839 73 ft 3 kts 19°
2026-05-05 06:53 24.54784 118.13836 73 ft 3 kts
2026-05-05 06:54 24.54764 118.13837 73 ft 3 kts 338°
2026-05-05 06:54 24.54747 118.13847 73 ft 3 kts 322°
2026-05-05 06:54 24.54741 118.13852 73 ft 0 kts 322°
2026-05-05 06:58 24.54752 118.13843 73 ft 4 kts 322°
2026-05-05 06:58 24.54780 118.13819 73 ft 7 kts 321°
2026-05-05 06:58 24.54826 118.13779 73 ft 10 kts 322°
2026-05-05 06:59 24.54877 118.13719 73 ft 12 kts 285°
2026-05-05 06:59 24.54833 118.13639 73 ft 14 kts 229°
2026-05-05 06:59 24.54773 118.13559 73 ft 15 kts 231°
2026-05-05 06:59 24.54704 118.13462 73 ft 17 kts 233°
2026-05-05 07:00 24.54630 118.13354 73 ft 17 kts 232°
2026-05-05 07:00 24.54554 118.13246 73 ft 19 kts 232°
2026-05-05 07:00 24.54466 118.13123 73 ft 21 kts 231°
2026-05-05 07:00 24.54366 118.12990 73 ft 24 kts 231°
2026-05-05 07:01 24.54270 118.12852 73 ft 21 kts 232°
2026-05-05 07:01 24.54186 118.12735 73 ft 19 kts 231°
2026-05-05 07:01 24.54102 118.12618 73 ft 18 kts 232°
2026-05-05 07:01 24.54022 118.12505 73 ft 19 kts 232°
2026-05-05 07:02 24.53939 118.12388 73 ft 19 kts 232°
2026-05-05 07:02 24.53851 118.12266 73 ft 22 kts 232°
2026-05-05 07:02 24.53762 118.12142 73 ft 20 kts 232°
2026-05-05 07:02 24.53674 118.12019 73 ft 21 kts 231°
2026-05-05 07:03 24.53582 118.11892 73 ft 17 kts 232°
2026-05-05 07:03 24.53521 118.11804 73 ft 14 kts 232°
2026-05-05 07:03 24.53460 118.11715 73 ft 11 kts 244°
2026-05-05 07:03 24.53491 118.11647 73 ft 7 kts 320°
2026-05-05 07:04 24.53541 118.11606 73 ft 10 kts 338°
2026-05-05 07:04 24.53609 118.11635 73 ft 12 kts 46°
2026-05-05 07:04 24.53674 118.11720 73 ft 20 kts 51°
2026-05-05 07:04 24.53886 118.12014 74 ft 85 kts 55°
2026-05-05 07:05 24.54380 118.12711 74 ft 146 kts 50°
2026-05-05 07:05 24.55081 118.13686 460 ft 161 kts 53°
2026-05-05 07:05 24.55784 118.14693 1018 ft 171 kts 53°
2026-05-05 07:05 24.56522 118.15742 1613 ft 178 kts 53°
2026-05-05 07:06 24.57325 118.16857 2094 ft 194 kts 51°
2026-05-05 07:06 24.58193 118.18056 2484 ft 214 kts 51°
2026-05-05 07:06 24.59152 118.19399 2905 ft 231 kts 51°
2026-05-05 07:06 24.60161 118.20823 3531 ft 239 kts 51°
2026-05-05 07:07 24.61202 118.22280 4198 ft 245 kts 50°
2026-05-05 07:07 24.62385 118.23652 4859 ft 251 kts 44°
2026-05-05 07:07 24.63697 118.24964 5459 ft 259 kts 41°
2026-05-05 07:07 24.65056 118.26295 6158 ft 262 kts 41°
2026-05-05 07:08 24.66403 118.27660 6843 ft 267 kts 41°
2026-05-05 07:08 24.67768 118.29077 7453 ft 273 kts 41°
2026-05-05 07:08 24.69165 118.30515 8044 ft 279 kts 42°
2026-05-05 07:08 24.70603 118.31981 8616 ft 284 kts 42°
2026-05-05 07:09 24.72066 118.33473 9225 ft 288 kts 42°
2026-05-05 07:09 24.73537 118.34990 9807 ft 293 kts 43°
2026-05-05 07:09 24.74981 118.36620 10303 ft 302 kts 45°
2026-05-05 07:09 24.76450 118.38362 10583 ft 319 kts 46°
2026-05-05 07:10 24.77985 118.40207 10804 ft 337 kts 46°
2026-05-05 07:10 24.79619 118.42161 11015 ft 355 kts 45°
2026-05-05 07:10 24.81344 118.44207 11229 ft 373 kts 45°
2026-05-05 07:10 24.83147 118.46338 11439 ft 389 kts 45°
2026-05-05 07:11 24.85025 118.48560 11661 ft 403 kts 45°
2026-05-05 07:11 24.86956 118.50846 12108 ft 410 kts 45°
2026-05-05 07:11 24.88906 118.53154 12659 ft 414 kts 45°
2026-05-05 07:11 24.90882 118.55468 13190 ft 417 kts 44°
2026-05-05 07:12 24.92866 118.57775 13709 ft 421 kts 44°
2026-05-05 07:12 24.94915 118.60158 14230 ft 425 kts 44°
2026-05-05 07:12 24.96927 118.62510 14729 ft 429 kts 44°
2026-05-05 07:12 24.99002 118.64946 15249 ft 432 kts 44°
2026-05-05 07:13 25.01067 118.67373 15725 ft 436 kts 44°
2026-05-05 07:13 25.03152 118.69823 16204 ft 440 kts 44°
2026-05-05 07:13 25.05257 118.72293 16668 ft 443 kts 44°
2026-05-05 07:13 25.07350 118.74750 17115 ft 447 kts 44°
2026-05-05 07:14 25.09509 118.77286 17595 ft 450 kts 44°
2026-05-05 07:14 25.11635 118.79786 18015 ft 454 kts 44°
2026-05-05 07:14 25.13798 118.82333 18431 ft 458 kts 44°
2026-05-05 07:14 25.15986 118.84910 18860 ft 461 kts 44°
2026-05-05 07:15 25.18186 118.87499 19242 ft 465 kts 44°
2026-05-05 07:15 25.20407 118.90112 19621 ft 469 kts 44°
2026-05-05 07:15 25.22640 118.92745 19993 ft 472 kts 44°
2026-05-05 07:15 25.24900 118.95414 20346 ft 476 kts 44°
2026-05-05 07:16 25.27167 118.98092 20683 ft 480 kts 44°
2026-05-05 07:16 25.29471 119.00793 20760 ft 483 kts 43°
2026-05-05 07:16 25.31787 119.03478 20759 ft 483 kts 43°
2026-05-05 07:16 25.34108 119.06155 20803 ft 483 kts 43°
2026-05-05 07:17 25.36434 119.08843 21136 ft 484 kts 43°
2026-05-05 07:17 25.38759 119.11548 21512 ft 487 kts 43°
2026-05-05 07:17 25.41094 119.14279 21842 ft 490 kts 44°
2026-05-05 07:17 25.43449 119.17033 22175 ft 493 kts 43°
2026-05-05 07:18 25.45810 119.19792 22492 ft 496 kts 43°
2026-05-05 07:18 25.48193 119.22573 22803 ft 499 kts 43°
2026-05-05 07:18 25.50592 119.25370 23099 ft 502 kts 43°
2026-05-05 07:18 25.53002 119.28185 23387 ft 505 kts 43°
2026-05-05 07:19 25.55422 119.31020 23669 ft 508 kts 44°
2026-05-05 07:19 25.57843 119.33879 23949 ft 510 kts 44°
2026-05-05 07:19 25.60274 119.36765 24245 ft 512 kts 44°
2026-05-05 07:19 25.62704 119.39647 24630 ft 512 kts 44°
2026-05-05 07:20 25.65139 119.42529 24993 ft 512 kts 44°
2026-05-05 07:20 25.67574 119.45404 25357 ft 512 kts 44°
2026-05-05 07:20 25.70006 119.48280 25743 ft 512 kts 44°
2026-05-05 07:20 25.72442 119.51167 26114 ft 511 kts 44°
2026-05-05 07:21 25.74874 119.54054 26457 ft 512 kts 44°
2026-05-05 07:21 25.77397 119.56828 26647 ft 508 kts 36°
2026-05-05 07:21 25.80284 119.59004 26663 ft 499 kts 24°
2026-05-05 07:21 25.83344 119.60793 26686 ft 497 kts 21°
2026-05-05 07:22 25.86447 119.62465 26685 ft 496 kts 20°
2026-05-05 07:22 25.89563 119.64129 26683 ft 497 kts 20°
2026-05-05 07:22 25.92659 119.65842 26682 ft 498 kts 21°
2026-05-05 07:22 25.95740 119.67606 26682 ft 498 kts 22°
2026-05-05 07:23 25.98777 119.69358 26683 ft 498 kts 21°
2026-05-05 07:23 26.01847 119.71107 26684 ft 498 kts 21°
2026-05-05 07:23 26.04951 119.72840 26673 ft 496 kts 20°
2026-05-05 07:23 26.08149 119.74156 26624 ft 485 kts
2026-05-05 07:24 26.11434 119.74619 26639 ft 469 kts 352°
2026-05-05 07:24 26.14670 119.74483 26658 ft 464 kts 348°
2026-05-05 07:24 26.17889 119.74199 26637 ft 463 kts 347°
2026-05-05 07:24 26.21095 119.73892 26634 ft 464 kts 347°
2026-05-05 07:25 26.24320 119.73631 26630 ft 466 kts 348°
2026-05-05 07:25 26.27563 119.73436 26629 ft 467 kts 349°
2026-05-05 07:25 26.30809 119.73276 26641 ft 467 kts 349°
2026-05-05 07:25 26.34057 119.73111 26668 ft 467 kts 349°
2026-05-05 07:26 26.37289 119.72918 26697 ft 466 kts 348°
2026-05-05 07:26 26.40528 119.72702 26709 ft 466 kts 348°
2026-05-05 07:26 26.43780 119.72568 26698 ft 472 kts 354°
2026-05-05 07:26 26.47077 119.73060 26665 ft 486 kts
2026-05-05 07:27 26.50267 119.74439 26669 ft 499 kts 23°
2026-05-05 07:27 26.53239 119.76462 26709 ft 502 kts 28°
2026-05-05 07:27 26.56148 119.78639 26703 ft 503 kts 29°
2026-05-05 07:27 26.59051 119.80830 26683 ft 504 kts 28°
2026-05-05 07:28 26.61983 119.82966 26668 ft 503 kts 27°
2026-05-05 07:28 26.64957 119.85032 26677 ft 502 kts 26°
2026-05-05 07:28 26.67898 119.87031 26677 ft 502 kts 26°
2026-05-05 07:28 26.70876 119.89073 26655 ft 502 kts 26°
2026-05-05 07:29 26.73841 119.91153 26634 ft 503 kts 27°
2026-05-05 07:29 26.76785 119.93258 26624 ft 504 kts 27°
2026-05-05 07:29 26.79741 119.95379 26636 ft 503 kts 27°
2026-05-05 07:29 26.82694 119.97478 26634 ft 503 kts 27°
2026-05-05 07:30 26.85659 119.99565 26622 ft 503 kts 27°
2026-05-05 07:30 26.91587 120.03724 26620 ft 504 kts 27°
2026-05-05 07:30 26.94550 120.05826 26606 ft 504 kts 27°
2026-05-05 07:31 26.97511 120.07938 26618 ft 504 kts 27°
2026-05-05 07:31 27.00475 120.10050 26638 ft 504 kts 27°
2026-05-05 07:31 27.03436 120.12155 26652 ft 504 kts 27°
2026-05-05 07:31 27.05392 120.13543 26656 ft 504 kts 27°
2026-05-05 07:32 27.08355 120.15644 26645 ft 504 kts 27°
2026-05-05 07:32 27.12326 120.18465 26630 ft 505 kts 27°
2026-05-05 07:32 27.15290 120.20573 26646 ft 504 kts 27°
2026-05-05 07:32 27.18256 120.22672 26656 ft 504 kts 27°
2026-05-05 07:33 27.20230 120.24062 26644 ft 505 kts 27°
2026-05-05 07:33 27.23212 120.26156 26622 ft 505 kts 27°
2026-05-05 07:33 27.26185 120.28247 26604 ft 506 kts 27°
2026-05-05 07:33 27.29170 120.30355 26589 ft 506 kts 27°
2026-05-05 07:34 27.32139 120.32461 26608 ft 506 kts 27°
2026-05-05 07:34 27.35121 120.34578 26635 ft 505 kts 27°
2026-05-05 07:34 27.38089 120.36683 26644 ft 505 kts 27°
2026-05-05 07:34 27.41064 120.38793 26626 ft 505 kts 27°
2026-05-05 07:35 27.44029 120.40899 26605 ft 506 kts 27°
2026-05-05 07:35 27.47010 120.43020 26601 ft 506 kts 27°
2026-05-05 07:35 27.49982 120.45137 26610 ft 506 kts 27°
2026-05-05 07:35 27.52957 120.47259 26606 ft 506 kts 27°
2026-05-05 07:36 27.56894 120.50066 26598 ft 506 kts 27°
2026-05-05 07:36 27.58904 120.51499 26599 ft 506 kts 27°
2026-05-05 07:36 27.61833 120.53589 26604 ft 506 kts 27°
2026-05-05 07:36 27.64805 120.55712 26603 ft 506 kts 27°
2026-05-05 07:37 27.67770 120.57832 26603 ft 506 kts 27°
2026-05-05 07:37 27.70745 120.59961 26603 ft 506 kts 27°
2026-05-05 07:37 27.73776 120.61933 26581 ft 500 kts 19°
2026-05-05 07:37 27.77021 120.63196 26569 ft 486 kts
2026-05-05 07:38 27.80318 120.63689 26609 ft 476 kts 357°
2026-05-05 07:38 27.83627 120.63940 26595 ft 475 kts 355°
2026-05-05 07:38 27.86924 120.64150 26574 ft 476 kts 355°
2026-05-05 07:38 27.90232 120.64393 26570 ft 477 kts 356°
2026-05-05 07:39 27.93550 120.64682 26589 ft 478 kts 356°
2026-05-05 07:39 27.96865 120.65010 26610 ft 478 kts 357°
2026-05-05 07:39 28.00174 120.65349 26620 ft 478 kts 357°
2026-05-05 07:39 28.03487 120.65677 26624 ft 478 kts 357°
2026-05-05 07:40 28.06805 120.65990 26618 ft 478 kts 356°
2026-05-05 07:40 28.10117 120.66303 26628 ft 478 kts 357°
2026-05-05 07:40 28.13431 120.66624 26633 ft 478 kts 357°
2026-05-05 07:40 28.16739 120.66953 26652 ft 478 kts 357°
2026-05-05 07:41 28.20049 120.67285 26646 ft 478 kts 357°
2026-05-05 07:41 28.23364 120.67611 26647 ft 477 kts 357°
2026-05-05 07:41 28.26666 120.67933 26648 ft 477 kts 357°
2026-05-05 07:41 28.29976 120.68256 26649 ft 476 kts 357°
2026-05-05 07:42 28.33273 120.68580 26635 ft 476 kts 357°
2026-05-05 07:42 28.36573 120.68906 26615 ft 476 kts 357°
2026-05-05 07:42 28.39873 120.69231 26593 ft 476 kts 357°
2026-05-05 07:42 28.43132 120.69553 26574 ft 476 kts 357°
2026-05-05 07:43 28.46425 120.69877 26555 ft 476 kts 357°
2026-05-05 07:43 28.49725 120.70206 26556 ft 476 kts 357°
2026-05-05 07:43 28.53026 120.70541 26552 ft 476 kts 357°
2026-05-05 07:43 28.56313 120.70876 26553 ft 476 kts 357°
2026-05-05 07:44 28.59621 120.71210 26551 ft 476 kts 357°
2026-05-05 07:44 28.62915 120.71541 26558 ft 476 kts 357°
2026-05-05 07:44 28.66214 120.71872 26568 ft 476 kts 357°
2026-05-05 07:44 28.69507 120.72204 26578 ft 475 kts 357°
2026-05-05 07:45 28.72804 120.72544 26591 ft 476 kts 358°
2026-05-05 07:45 28.76091 120.72907 26614 ft 476 kts 358°
2026-05-05 07:45 28.79391 120.73286 26641 ft 475 kts 358°
2026-05-05 07:45 28.82668 120.73659 26633 ft 474 kts 358°
2026-05-05 07:46 28.85954 120.74023 26633 ft 474 kts 358°
2026-05-05 07:46 28.89241 120.74371 26617 ft 474 kts 357°
2026-05-05 07:46 28.92518 120.74700 26606 ft 473 kts 357°
2026-05-05 07:46 28.95797 120.75023 26608 ft 473 kts 357°
2026-05-05 07:47 28.99075 120.75352 26595 ft 473 kts 358°
2026-05-05 07:47 29.02356 120.75691 26582 ft 473 kts 358°
2026-05-05 07:47 29.05635 120.76035 26584 ft 473 kts 358°
2026-05-05 07:47 29.08912 120.76377 26571 ft 473 kts 358°
2026-05-05 07:48 29.12188 120.76715 26571 ft 472 kts 358°
2026-05-05 07:48 29.15459 120.77052 26592 ft 472 kts 358°
2026-05-05 07:48 29.18720 120.77387 26613 ft 471 kts 358°
2026-05-05 07:48 29.21984 120.77723 26632 ft 470 kts 358°
2026-05-05 07:49 29.25241 120.78060 26621 ft 470 kts 358°
2026-05-05 07:49 29.28498 120.78399 26599 ft 470 kts 358°
2026-05-05 07:49 29.31757 120.78737 26578 ft 470 kts 358°
2026-05-05 07:49 29.35017 120.79073 26565 ft 470 kts 358°
2026-05-05 07:50 29.38229 120.79404 26562 ft 470 kts 358°
2026-05-05 07:50 29.41521 120.79746 26544 ft 470 kts 358°
2026-05-05 07:50 29.44780 120.80086 26546 ft 469 kts 358°
2026-05-05 07:50 29.47987 120.80420 26562 ft 469 kts 358°
2026-05-05 07:51 29.51223 120.80757 26574 ft 468 kts 358°
2026-05-05 07:51 29.54470 120.81182 26557 ft 473 kts
2026-05-05 07:51 29.57672 120.82229 26525 ft 484 kts 17°
2026-05-05 07:51 29.60638 120.84135 26533 ft 494 kts 32°
2026-05-05 07:52 29.63127 120.86892 26545 ft 502 kts 49°
2026-05-05 07:52 29.65098 120.90205 26576 ft 504 kts 56°
2026-05-05 07:52 29.66950 120.93630 26569 ft 505 kts 57°
2026-05-05 07:52 29.68798 120.97059 26549 ft 505 kts 56°
2026-05-05 07:53 29.70684 121.00438 26448 ft 496 kts 55°
2026-05-05 07:53 29.72568 121.03688 26261 ft 483 kts 54°
2026-05-05 07:53 29.74434 121.06853 25976 ft 473 kts 54°
2026-05-05 07:53 29.76267 121.09985 25477 ft 470 kts 54°
2026-05-05 07:54 29.78055 121.13104 25024 ft 465 kts 55°
2026-05-05 07:54 29.79808 121.16205 24594 ft 459 kts 55°
2026-05-05 07:54 29.81540 121.19276 24168 ft 454 kts 55°
2026-05-05 07:54 29.83253 121.22296 23728 ft 449 kts 55°
2026-05-05 07:55 29.84957 121.25281 23270 ft 444 kts 55°
2026-05-05 07:55 29.86651 121.28240 22812 ft 440 kts 55°
2026-05-05 07:55 29.88342 121.31165 22348 ft 435 kts 52°
2026-05-05 07:55 29.90341 121.33730 21851 ft 427 kts 37°
2026-05-05 07:56 29.92772 121.35621 21416 ft 417 kts 26°
2026-05-05 07:56 29.95309 121.37189 20969 ft 411 kts 23°
2026-05-05 07:56 29.97843 121.38658 20710 ft 408 kts 22°
2026-05-05 07:56 30.00353 121.40127 20707 ft 409 kts 24°
2026-05-05 07:57 30.02855 121.41659 20701 ft 405 kts 25°
2026-05-05 07:57 30.05320 121.43226 20703 ft 404 kts 26°
2026-05-05 07:57 30.07759 121.44793 20537 ft 398 kts 25°
2026-05-05 07:57 30.10171 121.46328 20025 ft 396 kts 25°
2026-05-05 07:58 30.12597 121.47848 19436 ft 396 kts 25°
2026-05-05 07:58 30.15012 121.49352 18943 ft 393 kts 25°
2026-05-05 07:58 30.17411 121.50851 18482 ft 390 kts 25°
2026-05-05 07:58 30.19784 121.52343 18025 ft 386 kts 26°
2026-05-05 07:59 30.22123 121.53818 17562 ft 382 kts 26°
2026-05-05 07:59 30.24446 121.55280 17094 ft 379 kts 26°
2026-05-05 07:59 30.26752 121.56732 16629 ft 375 kts 26°
2026-05-05 07:59 30.29027 121.58192 16163 ft 372 kts 27°
2026-05-05 08:00 30.31273 121.59657 15700 ft 369 kts 27°
2026-05-05 08:00 30.33492 121.61110 15217 ft 366 kts 27°
2026-05-05 08:00 30.35717 121.62559 14502 ft 370 kts 27°
2026-05-05 08:00 30.37971 121.64074 13653 ft 377 kts 29°
2026-05-05 08:01 30.40221 121.65642 13078 ft 376 kts 30°
2026-05-05 08:01 30.42433 121.67204 12590 ft 371 kts 30°
2026-05-05 08:01 30.44625 121.68756 12091 ft 367 kts 30°
2026-05-05 08:01 30.46802 121.70292 11811 ft 365 kts 30°
2026-05-05 08:02 30.48969 121.71816 11795 ft 365 kts 30°
2026-05-05 08:02 30.51139 121.73339 11794 ft 362 kts 30°
2026-05-05 08:02 30.53216 121.74800 11783 ft 345 kts 30°
2026-05-05 08:02 30.55231 121.76219 11785 ft 334 kts 30°
2026-05-05 08:03 30.57225 121.77504 11676 ft 321 kts 20°
2026-05-05 08:03 30.59338 121.78263 11545 ft 308 kts 13°
2026-05-05 08:03 30.61368 121.78798 11291 ft 301 kts 10°
2026-05-05 08:03 30.63401 121.79278 11006 ft 296 kts 10°
2026-05-05 08:04 30.65403 121.79764 10678 ft 292 kts 11°
2026-05-05 08:04 30.67383 121.80284 10320 ft 290 kts 12°
2026-05-05 08:04 30.69342 121.80827 9964 ft 289 kts 13°
2026-05-05 08:04 30.71287 121.81368 9610 ft 287 kts 13°
2026-05-05 08:05 30.73221 121.81898 9255 ft 285 kts 13°
2026-05-05 08:05 30.75150 121.82421 8893 ft 283 kts 13°
2026-05-05 08:05 30.77058 121.82938 8550 ft 281 kts 13°
2026-05-05 08:05 30.78957 121.83454 8187 ft 279 kts 13°
2026-05-05 08:06 30.80848 121.83971 7823 ft 278 kts 13°
2026-05-05 08:06 30.82727 121.84484 7458 ft 277 kts 13°
2026-05-05 08:06 30.84598 121.84995 7095 ft 276 kts 13°
2026-05-05 08:06 30.86464 121.85504 6724 ft 275 kts 13°
2026-05-05 08:07 30.88324 121.86012 6364 ft 274 kts 13°
2026-05-05 08:07 30.90178 121.86518 6010 ft 273 kts 13°
2026-05-05 08:07 30.92026 121.87023 5890 ft 273 kts 13°
2026-05-05 08:07 30.93825 121.87732 5887 ft 273 kts 26°
2026-05-05 08:08 30.95488 121.88802 5896 ft 273 kts 32°
2026-05-05 08:08 30.97071 121.89967 5889 ft 273 kts 32°
2026-05-05 08:08 30.98707 121.91155 5895 ft 273 kts 31°
2026-05-05 08:08 31.00323 121.92261 5893 ft 273 kts 30°
2026-05-05 08:09 31.01973 121.93362 5895 ft 273 kts 30°
2026-05-05 08:09 31.03616 121.94473 5898 ft 273 kts 30°
2026-05-05 08:09 31.05250 121.95600 5886 ft 273 kts 31°
2026-05-05 08:09 31.06892 121.96714 5883 ft 273 kts 27°
2026-05-05 08:10 31.08705 121.97299 5834 ft 271 kts
2026-05-05 08:10 31.10535 121.96883 5580 ft 269 kts 339°
2026-05-05 08:10 31.12267 121.96049 5187 ft 269 kts 336°
2026-05-05 08:10 31.14010 121.95244 4790 ft 271 kts 340°
2026-05-05 08:11 31.15807 121.94567 4403 ft 271 kts 342°
2026-05-05 08:11 31.17618 121.93943 4030 ft 271 kts 342°
2026-05-05 08:11 31.19421 121.93292 3648 ft 272 kts 341°
2026-05-05 08:11 31.21210 121.92600 3332 ft 269 kts 340°
2026-05-05 08:12 31.22960 121.91928 3192 ft 259 kts 341°
2026-05-05 08:12 31.24651 121.91311 3066 ft 249 kts 341°
2026-05-05 08:12 31.26272 121.90722 2959 ft 238 kts 342°
2026-05-05 08:12 31.27824 121.90162 2802 ft 230 kts 342°
2026-05-05 08:13 31.29348 121.89610 2518 ft 229 kts 342°
2026-05-05 08:13 31.30858 121.89056 2231 ft 227 kts 342°
2026-05-05 08:13 31.32256 121.88263 1964 ft 221 kts 317°
2026-05-05 08:13 31.33126 121.86850 1955 ft 213 kts 287°
2026-05-05 08:14 31.33282 121.85169 1970 ft 207 kts 257°
2026-05-05 08:14 31.32860 121.83580 2003 ft 205 kts 245°
2026-05-05 08:14 31.32320 121.82042 2006 ft 204 kts 242°
2026-05-05 08:14 31.31639 121.80594 2006 ft 203 kts 235°
2026-05-05 08:15 31.30881 121.79207 2003 ft 202 kts 234°
2026-05-05 08:15 31.30030 121.78000 2003 ft 182 kts 216°
2026-05-05 08:15 31.28970 121.77385 1996 ft 162 kts 193°
2026-05-05 08:15 31.27900 121.77255 2030 ft 151 kts 178°
2026-05-05 08:16 31.26896 121.77502 2023 ft 143 kts 165°
2026-05-05 08:16 31.25957 121.77839 2018 ft 141 kts 163°
2026-05-05 08:16 31.25022 121.78193 1895 ft 140 kts 163°
2026-05-05 08:16 31.24096 121.78544 1725 ft 140 kts 163°
2026-05-05 08:17 31.23183 121.78889 1542 ft 139 kts 163°
2026-05-05 08:17 31.22265 121.79236 1359 ft 138 kts 162°
2026-05-05 08:17 31.21351 121.79582 1174 ft 138 kts 162°
2026-05-05 08:17 31.20442 121.79926 969 ft 137 kts 162°
2026-05-05 08:18 31.19536 121.80267 766 ft 137 kts 162°
2026-05-05 08:18 31.18628 121.80599 575 ft 136 kts 162°
2026-05-05 08:18 31.17726 121.80935 393 ft 136 kts 162°
2026-05-05 08:18 31.16828 121.81277 233 ft 136 kts 162°
2026-05-05 08:19 31.15931 121.81612 70 ft 135 kts 162°
2026-05-05 08:19 31.15076 121.81951 25 ft 119 kts 161°
2026-05-05 08:19 31.14456 121.82192 25 ft 76 kts 161°
2026-05-05 08:19 31.14177 121.82293 25 ft 27 kts 166°
2026-05-05 08:20 31.14032 121.82293 24 ft 11 kts 189°
2026-05-05 08:20 31.13963 121.82277 25 ft 8 kts 191°